• In Romania
  • List of Countries
  • For 7 days
  • Water Temperature
  • Satellite Maps
  • Weather Map
  • Weather Widgets
  • user-avatar
    Login

    Hourly Weather Trubniki

    Today, 19 April, Thursday

    Time Temperature Precipitation Wind Pressure Humidity
    00:00 +6°C° 0.3 mm 5 mps 743 mmHg 89%
    01:00 +6°C° 0.3 mm 5 mps 743 mmHg 90%
    02:00 +7°C° 0 mm 3 mps 742 mmHg 90%
    03:00 +6°C° 0.4 mm 4 mps 742 mmHg 90%
    04:00 +6°C° 0.4 mm 5 mps 742 mmHg 90%
    05:00 +5°C° 0.4 mm 5 mps 742 mmHg 90%
    06:00 +5°C° 0.5 mm 5 mps 742 mmHg 90%
    07:00 +5°C° 0.5 mm 5 mps 742 mmHg 90%
    08:00 +5°C° 0.5 mm 5 mps 742 mmHg 89%
    09:00 +6°C° 0.4 mm 5 mps 743 mmHg 89%
    10:00 +6°C° 0.4 mm 5 mps 743 mmHg 88%
    11:00 +6°C° 0.4 mm 5 mps 743 mmHg 87%
    12:00 +7°C° 0.3 mm 5 mps 743 mmHg 86%
    13:00 +7°C° 0.3 mm 5 mps 743 mmHg 85%
    14:00 +8°C° 0.3 mm 5 mps 743 mmHg 84%
    15:00 +8°C° 0 mm 4 mps 744 mmHg 81%
    16:00 +8°C° 0 mm 4 mps 744 mmHg 79%
    17:00 +10°C° 0 mm 4 mps 744 mmHg 77%
    18:00 +8°C° 0 mm 4 mps 745 mmHg 79%
    19:00 +8°C° 0 mm 4 mps 745 mmHg 80%
    20:00 +8°C° 0 mm 3 mps 745 mmHg 82%
    21:00 +7°C° 0 mm 3 mps 746 mmHg 83%
    22:00 +7°C° 0 mm 3 mps 746 mmHg 84%
    23:00 +5°C° 0 mm 3 mps 746 mmHg 85%

    Tomorrow, 20 April, Friday

    Time Temperature Precipitation Wind Pressure Humidity
    00:00 +5°C° 0 mm 3 mps 747 mmHg 87%
    01:00 +5°C° 0 mm 3 mps 747 mmHg 90%
    02:00 +4°C° 0 mm 3 mps 747 mmHg 92%
    03:00 +4°C° 0 mm 3 mps 747 mmHg 93%
    04:00 +4°C° 0 mm 3 mps 747 mmHg 94%
    05:00 +3°C° 0 mm 3 mps 748 mmHg 96%
    06:00 +4°C° 0 mm 3 mps 748 mmHg 91%
    07:00 +5°C° 0 mm 3 mps 748 mmHg 86%
    08:00 +6°C° 0 mm 4 mps 748 mmHg 81%
    09:00 +8°C° 0 mm 3 mps 749 mmHg 77%
    10:00 +9°C° 0 mm 3 mps 749 mmHg 73%
    11:00 +9°C° 0 mm 3 mps 749 mmHg 69%
    12:00 +10°C° 0 mm 3 mps 748 mmHg 67%
    13:00 +11°C° 0 mm 3 mps 748 mmHg 64%
    14:00 +12°C° 0 mm 2 mps 748 mmHg 61%
    15:00 +13°C° 0 mm 2 mps 748 mmHg 61%
    16:00 +13°C° 0 mm 2 mps 747 mmHg 60%
    17:00 +13°C° 0 mm 2 mps 747 mmHg 59%
    18:00 +12°C° 0 mm 2 mps 746 mmHg 66%
    19:00 +9°C° 0 mm 2 mps 746 mmHg 73%
    20:00 +8°C° 0 mm 2 mps 745 mmHg 81%
    21:00 +8°C° 0 mm 2 mps 745 mmHg 80%
    22:00 +8°C° 0 mm 3 mps 744 mmHg 80%
    23:00 +8°C° 0 mm 3 mps 743 mmHg 79%

    Day after tomorrow, 21 April, Saturday

    Time Temperature Precipitation Wind Pressure Humidity
    00:00 +8°C° 0 mm 3 mps 742 mmHg 81%
    01:00 +8°C° 0 mm 4 mps 741 mmHg 82%
    02:00 +8°C° 0 mm 4 mps 740 mmHg 84%
    03:00 +8°C° 0 mm 4 mps 739 mmHg 86%
    04:00 +8°C° 0 mm 4 mps 738 mmHg 88%
    05:00 +8°C° 0 mm 4 mps 738 mmHg 90%
    06:00 +9°C° 0 mm 5 mps 737 mmHg 86%
    07:00 +10°C° 0 mm 5 mps 736 mmHg 82%
    08:00 +11°C° 0 mm 6 mps 735 mmHg 77%
    09:00 +11°C° 0.1 mm 6 mps 734 mmHg 78%
    10:00 +13°C° 0.1 mm 6 mps 733 mmHg 79%
    11:00 +13°C° 0.1 mm 6 mps 733 mmHg 80%
    12:00 +11°C° 0.2 mm 7 mps 733 mmHg 75%
    13:00 +11°C° 0.2 mm 7 mps 733 mmHg 70%
    14:00 +11°C° 0.2 mm 7 mps 733 mmHg 66%
    15:00 +11°C° 0 mm 7 mps 733 mmHg 62%
    16:00 +10°C° 0 mm 6 mps 734 mmHg 58%
    17:00 +10°C° 0 mm 6 mps 734 mmHg 54%
    18:00 +9°C° 0.1 mm 5 mps 734 mmHg 61%
    19:00 +8°C° 0.1 mm 5 mps 735 mmHg 67%
    20:00 +7°C° 0.1 mm 4 mps 735 mmHg 74%
    21:00 +6°C° 0 mm 4 mps 735 mmHg 75%
    22:00 +6°C° 0 mm 4 mps 735 mmHg 77%
    23:00 +5°C° 0 mm 4 mps 736 mmHg 79%

    22 April, Sunday

    Time Temperature Precipitation Wind Pressure Humidity
    00:00 +5°C° 0 mm 4 mps 736 mmHg 79%
    01:00 +5°C° 0 mm 4 mps 736 mmHg 79%
    02:00 +5°C° 0 mm 4 mps 736 mmHg 79%
    03:00 +5°C° 0.1 mm 4 mps 737 mmHg 80%
    04:00 +5°C° 0.1 mm 4 mps 737 mmHg 81%
    05:00 +4°C° 0.1 mm 4 mps 737 mmHg 82%
    06:00 +5°C° 0.1 mm 4 mps 737 mmHg 80%
    07:00 +5°C° 0.1 mm 4 mps 737 mmHg 78%
    08:00 +6°C° 0.1 mm 4 mps 737 mmHg 76%
    09:00 +6°C° 0.2 mm 5 mps 738 mmHg 72%
    10:00 +7°C° 0.2 mm 5 mps 738 mmHg 69%
    11:00 +8°C° 0.2 mm 5 mps 738 mmHg 65%
    12:00 +8°C° 0.4 mm 5 mps 738 mmHg 63%
    13:00 +9°C° 0.4 mm 5 mps 738 mmHg 61%
    14:00 +9°C° 0.4 mm 5 mps 738 mmHg 59%
    15:00 +9°C° 0.5 mm 5 mps 738 mmHg 62%
    16:00 +8°C° 0.5 mm 4 mps 738 mmHg 66%
    17:00 +7°C° 0.5 mm 4 mps 738 mmHg 70%
    18:00 +7°C° 0.2 mm 3 mps 738 mmHg 76%
    19:00 +6°C° 0.2 mm 2 mps 739 mmHg 82%
    20:00 +6°C° 0.2 mm 1 mps 739 mmHg 87%
    21:00 +6°C° 0 mm 1 mps 739 mmHg 89%
    22:00 +5°C° 0 mm 1 mps 740 mmHg 91%
    23:00 +4°C° 0 mm 1 mps 740 mmHg 93%

    23 April, Monday

    Time Temperature Precipitation Wind Pressure Humidity
    00:00 +4°C° 0 mm 1 mps 740 mmHg 93%
    01:00 +4°C° 0 mm 1 mps 741 mmHg 93%
    02:00 +3°C° 0 mm 1 mps 741 mmHg 92%
    03:00 +3°C° 0 mm 1 mps 741 mmHg 92%
    04:00 +2°C° 0 mm 1 mps 741 mmHg 92%
    05:00 +2°C° 0 mm 1 mps 742 mmHg 92%
    06:00 +3°C° 0 mm 1 mps 742 mmHg 84%
    07:00 +5°C° 0 mm 1 mps 742 mmHg 77%
    08:00 +6°C° 0 mm 1 mps 742 mmHg 69%
    09:00 +8°C° 0 mm 1 mps 742 mmHg 63%
    10:00 +9°C° 0 mm 1 mps 743 mmHg 57%
    11:00 +10°C° 0 mm 1 mps 743 mmHg 51%
    12:00 +11°C° 0 mm 1 mps 743 mmHg 48%
    13:00 +12°C° 0 mm 1 mps 742 mmHg 45%
    14:00 +12°C° 0 mm 1 mps 742 mmHg 42%
    15:00 +11°C° 0 mm 0 mps 742 mmHg 43%
    16:00 +11°C° 0 mm 0 mps 742 mmHg 43%
    17:00 +10°C° 0 mm 0 mps 741 mmHg 44%
    18:00 +10°C° 0 mm 1 mps 741 mmHg 50%
    19:00 +8°C° 0 mm 1 mps 741 mmHg 55%
    20:00 +6°C° 0 mm 1 mps 741 mmHg 61%
    21:00 +6°C° 0 mm 1 mps 741 mmHg 64%
    22:00 +5°C° 0 mm 1 mps 741 mmHg 66%
    23:00 +4°C° 0 mm 2 mps 741 mmHg 68%

    24 April, Tuesday

    Time Temperature Precipitation Wind Pressure Humidity
    00:00 +4°C° 0 mm 2 mps 740 mmHg 71%
    01:00 +3°C° 0 mm 2 mps 740 mmHg 74%
    02:00 +3°C° 0 mm 2 mps 740 mmHg 76%
    03:00 +3°C° 0 mm 2 mps 740 mmHg 77%
    04:00 +2°C° 0 mm 3 mps 739 mmHg 77%
    05:00 +3°C° 0 mm 3 mps 739 mmHg 77%
    06:00 +3°C° 0.2 mm 3 mps 738 mmHg 75%
    07:00 +4°C° 0.2 mm 4 mps 738 mmHg 74%
    08:00 +5°C° 0.2 mm 4 mps 738 mmHg 72%
    09:00 +6°C° 0.4 mm 4 mps 737 mmHg 74%
    10:00 +6°C° 0.4 mm 4 mps 737 mmHg 76%
    11:00 +6°C° 0.4 mm 5 mps 737 mmHg 78%
    12:00 +6°C° 0.4 mm 4 mps 736 mmHg 79%
    13:00 +7°C° 0.4 mm 4 mps 736 mmHg 81%
    14:00 +7°C° 0.4 mm 4 mps 736 mmHg 82%
    15:00 +6°C° 0.6 mm 4 mps 736 mmHg 84%
    16:00 +7°C° 0.6 mm 3 mps 735 mmHg 86%
    17:00 +7°C° 0.6 mm 3 mps 735 mmHg 89%
    18:00 +5°C° 0.5 mm 3 mps 735 mmHg 90%
    19:00 +5°C° 0.5 mm 3 mps 734 mmHg 92%
    20:00 +6°C° 0.5 mm 2 mps 734 mmHg 94%
    21:00 +6°C° 0.1 mm 2 mps 734 mmHg 95%
    22:00 +5°C° 0.1 mm 2 mps 734 mmHg 95%
    23:00 +5°C° 0.1 mm 2 mps 733 mmHg 96%
    Show more